User: anonymous   Login
Location: Navajo
(48.7922°N, 105.0603°W)
Time: 02:20:53
(UTC+00:00)
Language:

CZ-4 DEB - Orbit

View from above orbital plane
View from above orbital plane
View from above satellite
View from above satellite

Ground track
Ground track

The orbit data is extracted from the following two-line orbital elements,

1 29039U 99057NJ  22343.48189490  .00003104  00000-0  65690-3 0  9997
2 29039  98.4409 344.9751 0062742  48.0536 104.3895 14.58774745 58970
Epoch (UTC): 09 December 2022 11:33:55
Eccentricity: 0.0062742
inclination: 98.4409°
perigee height: 653 km
apogee height: 741 km
right ascension of ascending node: 344.9751°
argument of perigee: 48.0536°
revolutions per day: 14.58774745
mean anomaly at epoch: 104.3895°
orbit number at epoch: 5897

The dashed part of the orbit path shows where the satellite is in the earth's shadow,  

DLR